Wind_Speed
17 16 15 15 13 11 6 6 14 16 22 21 22 17 21 17 20 23 29 28 28 32 35 35 37 38 40 39 37 35 32 30 30 32 33 35 34 32 31 30 32 31 28 29 34 35 36 38 36
18 19 19 20 15 12 6 10 14 13 25 21 17 23 19 12 29 31 32 31 33 32 34 36 37 40 43 42 37 33 30 29 31 34 33 32 34 35 35 34 32 29 28 26 28 33 34 36 36
19 21 21 21 17 7 7 18 25 24 28 13 20 32 29 26 30 27 28 30 34 31 34 36 37 39 42 43 36 32 31 29 33 32 32 33 35 35 37 36 35 33 32 28 26 27 31 33 35
22 25 28 24 18 12 13 8 18 17 5 27 31 26 24 35 35 33 28 32 38 35 34 37 37 39 41 44 38 32 31 30 34 31 33 36 38 37 37 37 37 37 37 33 30 25 27 30 32
31 30 28 27 23 15 16 12 26 14 13 12 14 21 27 31 37 36 31 31 36 42 33 34 36 38 42 45 39 33 31 32 32 31 34 38 40 40 40 38 36 36 36 34 32 32 27 25 28
33 38 40 38 31 18 17 18 25 20 22 29 21 20 33 34 42 37 32 29 38 43 43 34 36 39 42 43 34 32 32 36 31 32 36 39 40 41 40 38 36 32 31 30 30 29 29 28 28
38 42 40 37 33 24 16 18 20 26 26 17 22 32 22 34 39 40 34 42 42 41 45 33 34 39 42 39 31 32 32 36 33 35 37 39 42 41 37 36 36 34 31 28 27 28 28 26 28
39 42 45 43 40 35 26 20 22 15 18 31 32 37 34 34 45 50 51 44 46 52 53 56 33 39 44 41 33 34 34 35 35 37 37 41 40 37 36 36 36 36 30 27 27 27 28 28 27
41 46 46 44 40 36 30 23 18 15 31 26 33 35 37 46 49 49 43 35 40 39 48 56 54 30 40 42 37 35 37 38 36 37 37 38 34 36 37 36 37 31 29 30 30 29 31 29 28
51 51 44 40 38 38 36 21 25 22 24 27 36 39 32 35 41 46 45 46 40 36 36 49 52 40 33 40 37 35 37 39 37 36 34 37 35 35 37 37 34 31 32 30 30 33 32 29 28
45 49 44 43 43 41 39 35 33 27 28 29 33 27 29 43 47 48 45 44 41 41 38 36 52 47 38 40 35 33 36 37 37 37 37 41 40 39 34 36 32 30 28 33 34 32 29 27 28
54 54 51 50 47 46 49 45 44 44 42 40 38 43 49 54 58 56 51 45 44 41 38 32 47 52 43 38 35 29 33 34 35 37 40 42 39 44 37 38 36 34 35 35 30 27 27 28 26
61 60 56 52 48 47 51 55 55 51 45 50 48 51 56 57 63 63 54 49 46 41 40 37 43 51 43 36 36 30 32 33 34 37 43 50 42 41 39 38 35 35 36 34 29 29 28 28 29
59 59 59 57 58 58 58 60 59 58 57 59 64 61 58 58 57 57 49 49 45 43 42 39 44 49 37 32 33 34 34 37 37 39 41 48 52 42 41 40 39 36 36 35 33 31 29 25 27
64 66 67 66 68 70 55 62 62 53 47 50 55 55 52 50 47 51 51 46 46 44 41 39 43 41 31 31 29 34 35 40 40 40 43 42 41 45 43 42 41 40 36 33 33 31 31 28 26
71 70 69 56 55 47 51 61 50 44 45 48 48 50 48 45 48 47 50 43 45 42 39 40 39 34 27 28 27 32 35 39 41 38 43 45 45 46 44 43 43 42 36 34 35 33 33 32 32
64 66 59 47 45 51 49 53 41 40 41 41 41 42 47 49 49 55 56 43 46 42 37 39 35 31 25 28 26 29 36 38 39 40 43 45 45 47 45 44 45 40 39 36 33 32 29 30 31
54 51 41 46 43 43 42 46 37 40 36 35 38 37 34 40 47 51 53 43 43 39 37 35 31 30 26 27 27 30 33 35 36 42 45 46 46 45 43 43 42 41 39 37 32 30 31 31 30
56 51 53 50 46 46 43 42 37 37 39 39 39 42 35 39 39 42 49 39 40 33 37 32 28 27 28 26 27 30 35 37 40 41 43 44 45 45 43 45 41 40 38 36 32 34 33 32 30
57 58 59 51 48 44 37 41 44 42 39 37 38 40 40 40 40 43 41 34 35 30 34 29 28 26 26 27 30 34 38 39 38 39 40 40 42 44 44 40 39 41 38 34 30 27 23 22 22
58 55 52 49 47 45 46 43 45 37 40 42 42 41 40 37 38 37 39 39 32 29 26 28 26 25 25 29 34 38 36 36 35 37 38 37 39 40 38 37 35 32 25 24 22 22 21 19 18
61 51 55 52 53 51 42 53 42 35 37 36 41 37 34 37 36 34 33 36 28 25 23 24 22 24 26 30 37 35 34 35 34 34 36 36 31 32 30 30 24 23 22 21 20 17 15 14 13
52 49 50 50 52 51 49 49 26 30 33 37 37 35 34 33 30 27 29 31 24 22 20 19 20 22 28 32 33 31 33 28 30 32 30 32 30 29 27 22 21 18 14 11 7 5 6 6 7
59 54 51 50 48 45 44 44 34 31 33 33 32 33 36 34 27 27 32 20 22 17 16 18 20 25 30 30 27 26 26 27 28 26 27 28 28 23 18 17 13 8 5 5 4 1 2 2 3
64 61 56 52 55 53 35 42 37 25 34 35 34 31 29 29 28 33 18 21 16 16 16 17 22 28 27 24 25 23 24 25 23 23 25 24 20 17 14 10 5 3 4 2 2 3 1 1 4
65 65 61 62 56 52 44 48 29 27 25 25 22 24 21 22 24 15 20 16 14 13 14 18 24 24 22 24 21 21 22 21 21 22 22 19 15 11 8 4 4 5 4 3 4 5 5 2 1
50 60 56 52 44 44 41 29 32 27 18 20 21 16 17 9 16 19 18 13 13 12 15 19 20 21 22 19 19 20 19 19 20 22 18 13 9 5 4 3 5 3 4 5 6 6 7 3 4
56 47 63 52 52 43 42 24 15 22 20 18 12 13 16 6 18 16 14 14 13 14 15 17 19 20 16 15 16 17 18 18 20 17 12 9 4 3 4 3 2 2 2 6 8 7 10 10 3
56 54 49 54 44 47 33 19 16 28 22 20 16 15 15 14 15 16 15 13 14 14 16 16 18 15 14 14 15 17 18 15 17 10 8 6 3 2 2 1 0 1 3 7 13 13 8 6 3
46 53 54 60 54 46 34 29 29 31 26 24 21 21 18 19 16 15 12 12 12 14 14 15 15 12 12 14 15 16 13 13 12 7 6 4 3 4 2 1 2 3 2 4 13 16 5 6 3
Wind_Direction
224 227 230 235 238 241 264 319 224 258 272 260 257 273 295 311 294 291 301 315 310 308 307 311 313 317 320 324 328 329 325 320 321 322 324 324 321 314 308 305 301 298 289 278 272 270 266 264 259
230 235 233 237 243 254 325 280 246 225 230 233 270 294 302 267 289 306 315 314 317 316 314 313 317 321 322 324 330 329 323 322 325 326 326 322 318 316 311 306 299 295 296 291 279 271 267 261 260
234 238 241 242 242 265 191 269 225 255 275 233 285 298 286 281 294 301 313 309 306 306 310 314 319 319 321 324 329 327 325 322 327 324 321 319 318 315 310 309 304 298 288 286 282 275 268 263 259
241 243 245 245 247 237 234 309 279 282 334 287 297 288 286 289 295 301 313 307 305 306 311 310 311 317 322 327 328 327 326 322 325 323 321 321 317 314 310 310 307 304 298 286 278 270 266 262 257
236 241 247 250 249 249 247 285 290 279 239 296 280 277 284 285 289 301 311 308 308 305 315 318 316 317 325 326 327 326 326 326 327 323 321 320 317 314 313 312 309 305 298 292 280 273 265 258 259
243 245 257 254 254 266 256 258 244 254 269 275 287 274 279 285 284 304 301 298 311 310 313 323 320 320 323 327 326 325 325 327 326 325 323 319 317 314 312 310 308 304 298 293 287 277 267 262 255
244 248 249 251 251 238 237 261 258 252 262 268 237 268 247 274 297 303 295 303 306 306 305 315 322 323 324 329 324 319 325 324 326 326 323 321 318 316 311 308 306 306 303 294 287 282 278 268 257
239 246 245 247 247 242 224 253 267 249 259 250 259 259 255 271 287 297 299 307 318 318 313 313 324 323 325 329 321 316 324 323 325 323 323 321 320 317 315 311 309 311 305 298 296 291 284 277 268
247 246 248 252 255 253 244 253 272 258 262 246 265 260 263 278 277 282 294 295 311 310 313 313 314 322 324 322 317 315 319 319 323 322 321 321 322 319 314 314 307 302 297 299 298 294 289 281 272
262 257 262 264 254 252 252 257 265 256 271 269 259 267 278 278 275 281 286 303 305 306 304 305 309 318 320 316 310 309 311 315 320 318 315 319 320 318 318 313 309 303 301 300 293 292 286 277 275
251 263 264 258 249 250 251 244 248 254 270 274 294 279 264 271 274 280 289 290 296 302 302 301 303 311 320 312 301 304 302 312 314 313 310 314 317 316 311 314 308 305 300 299 296 291 283 275 273
247 262 257 257 250 251 254 249 245 244 248 261 268 265 271 278 277 282 283 289 294 296 300 295 296 299 312 303 298 302 297 307 310 310 311 320 311 313 314 315 310 309 305 301 298 290 281 280 274
254 259 254 255 252 255 255 254 257 258 256 259 259 261 269 282 284 284 284 294 296 293 297 297 291 293 304 292 294 303 300 305 308 309 303 312 314 312 312 311 306 305 304 303 297 292 290 277 271
257 254 251 254 257 266 265 262 260 267 272 266 266 272 274 273 278 285 284 286 287 288 292 297 293 292 295 285 292 299 303 306 308 302 310 310 308 311 313 310 308 304 299 297 292 289 284 282 273
256 257 258 259 261 266 261 263 266 275 277 275 271 273 276 276 280 280 280 285 284 283 296 299 292 290 289 287 287 292 297 297 305 304 303 312 312 312 311 309 304 302 298 293 290 286 281 276 274
251 254 259 258 263 268 264 268 270 276 277 276 275 273 272 275 277 281 279 283 275 279 297 296 287 282 287 284 289 290 291 295 298 298 300 308 307 309 309 304 303 303 300 294 289 283 279 271 269
249 256 261 266 265 266 260 265 275 280 277 279 280 273 268 269 274 273 279 281 280 283 296 287 283 280 284 287 291 287 288 293 292 294 299 302 305 305 304 302 303 301 300 296 289 285 277 271 270
253 261 266 264 265 267 267 274 278 280 278 278 284 282 280 278 274 278 277 277 279 286 286 284 275 283 284 290 294 290 290 293 293 296 297 300 302 302 300 300 299 298 297 292 283 282 278 272 265
256 258 258 261 266 270 268 276 273 275 264 274 274 281 286 278 271 271 281 278 277 283 279 276 272 280 284 290 295 293 290 290 292 296 297 298 300 300 300 300 297 296 293 292 284 277 278 271 263
248 252 254 257 259 260 261 265 275 278 282 279 278 279 281 280 275 268 283 265 273 269 270 265 271 277 286 296 292 291 298 296 297 297 297 298 300 297 299 299 296 295 294 290 285 280 274 272 265
242 246 250 254 253 257 261 262 264 272 275 275 282 281 283 287 281 280 275 264 267 252 255 258 272 279 289 293 293 300 298 299 295 296 296 296 296 301 302 301 300 296 292 289 285 279 277 270 260
241 244 248 249 252 254 254 265 263 271 275 284 281 291 299 290 279 266 260 262 256 244 246 263 274 279 288 292 295 300 299 299 296 294 295 297 298 299 301 300 301 299 299 293 287 277 268 261 259
238 237 242 246 250 256 254 260 270 266 274 277 290 293 293 291 281 267 255 259 243 238 253 268 271 280 288 294 301 301 300 296 295 297 301 303 307 308 300 300 303 303 306 312 310 291 261 260 257
231 232 233 237 243 250 250 258 265 266 271 276 291 295 291 278 265 254 252 257 229 240 261 262 272 282 291 298 300 300 296 297 299 301 303 310 309 306 305 304 304 311 328 350 350 344 294 272 304
227 226 229 231 235 247 250 255 266 265 275 283 287 294 292 271 259 250 259 220 226 252 258 266 277 288 297 300 299 295 295 299 300 303 310 308 306 316 314 312 305 324 357 292 327 353 354 178 3
224 225 226 232 239 249 250 251 278 283 292 287 284 287 269 266 263 232 215 219 243 245 259 273 286 294 297 299 294 297 297 295 299 310 310 308 316 322 331 338 324 333 352 16 37 30 25 25 211
211 214 225 228 235 243 248 267 269 300 301 279 285 263 274 256 216 217 211 230 231 244 271 289 294 299 296 291 299 297 293 290 303 309 300 308 313 343 0 344 331 350 43 46 33 353 360 70 139
203 214 212 215 220 228 238 248 264 271 279 286 256 265 242 251 232 220 226 224 232 260 285 300 298 293 290 296 302 301 299 294 300 301 296 303 301 343 324 337 346 339 42 28 7 359 16 53 107
203 201 211 212 220 218 223 207 252 262 264 274 245 250 246 215 220 223 217 223 247 281 298 295 291 287 295 292 298 304 300 297 299 284 298 295 258 127 317 94 283 260 32 18 23 33 48 35 78
203 206 200 206 211 217 217 214 248 242 259 264 241 243 235 225 217 214 218 240 277 298 296 289 287 288 298 296 300 308 300 296 284 281 298 284 231 166 94 5 201 186 77 50 25 14 41 47 98
Height
5885 5886 5887 5889 5893 5891 5894 5895 5900 5898 5895 5892 5892 5892 5890 5889 5886 5884 5882 5878 5878 5874 5870 5867 5864 5863 5860 5859 5859 5857 5854 5853 5850 5849 5847 5845 5844 5842 5840 5839 5839 5838 5839 5838 5837 5836 5836 5837 5838
5882 5883 5884 5886 5889 5889 5890 5893 5898 5894 5880 5884 5888 5888 5886 5884 5881 5873 5877 5873 5871 5870 5866 5863 5861 5859 5855 5855 5855 5853 5851 5849 5846 5844 5842 5840 5838 5836 5834 5834 5833 5832 5831 5831 5832 5831 5830 5830 5831
5878 5880 5882 5882 5885 5888 5889 5889 5888 5885 5883 5880 5886 5883 5881 5876 5877 5875 5874 5871 5868 5867 5863 5859 5857 5856 5853 5851 5851 5849 5848 5845 5842 5839 5837 5835 5833 5830 5829 5827 5826 5826 5825 5825 5824 5825 5825 5823 5824
5874 5877 5878 5879 5882 5885 5886 5881 5882 5883 5880 5881 5882 5883 5875 5872 5870 5872 5871 5868 5861 5863 5862 5858 5855 5853 5850 5846 5845 5844 5843 5840 5838 5833 5831 5829 5828 5826 5823 5821 5819 5817 5816 5817 5818 5818 5817 5817 5818
5871 5873 5873 5874 5879 5882 5882 5884 5876 5882 5882 5881 5880 5877 5872 5869 5864 5868 5867 5863 5859 5853 5860 5855 5853 5849 5845 5842 5840 5839 5838 5836 5833 5829 5826 5825 5823 5820 5816 5814 5813 5810 5808 5807 5808 5809 5811 5810 5811
5865 5866 5869 5871 5875 5878 5882 5884 5882 5880 5879 5881 5873 5873 5871 5863 5857 5864 5861 5860 5857 5850 5849 5855 5849 5846 5842 5839 5836 5835 5833 5831 5829 5825 5823 5822 5819 5815 5811 5807 5806 5804 5803 5801 5800 5800 5801 5803 5804
5860 5860 5863 5865 5869 5873 5879 5876 5876 5875 5877 5876 5871 5869 5869 5858 5855 5857 5856 5852 5855 5852 5845 5851 5846 5842 5838 5835 5833 5832 5830 5828 5824 5822 5820 5818 5815 5810 5807 5803 5800 5799 5797 5796 5795 5794 5793 5794 5795
5853 5852 5854 5858 5862 5865 5869 5869 5867 5869 5871 5864 5866 5865 5865 5861 5852 5851 5851 5849 5843 5838 5835 5830 5845 5839 5834 5831 5829 5828 5827 5824 5820 5818 5816 5813 5809 5805 5803 5800 5796 5793 5791 5790 5790 5788 5787 5787 5788
5844 5842 5844 5853 5858 5861 5862 5862 5865 5864 5860 5863 5859 5861 5861 5861 5858 5851 5848 5849 5850 5846 5833 5823 5827 5839 5832 5827 5825 5822 5822 5819 5817 5814 5811 5808 5805 5801 5798 5797 5793 5791 5787 5785 5783 5782 5781 5781 5780
5832 5836 5842 5848 5851 5853 5855 5858 5857 5856 5854 5855 5855 5854 5855 5853 5847 5844 5841 5844 5844 5845 5842 5826 5821 5826 5829 5824 5821 5819 5817 5815 5812 5809 5807 5804 5800 5796 5792 5789 5787 5784 5781 5779 5778 5776 5774 5774 5774
5825 5826 5835 5838 5842 5845 5847 5847 5848 5849 5848 5849 5842 5846 5846 5844 5841 5839 5838 5838 5840 5839 5838 5831 5817 5819 5818 5819 5816 5816 5812 5810 5807 5805 5802 5801 5797 5792 5789 5784 5782 5780 5777 5773 5771 5769 5768 5768 5767
5816 5821 5824 5829 5833 5836 5837 5839 5838 5840 5841 5843 5844 5841 5839 5839 5833 5831 5832 5833 5834 5832 5831 5831 5817 5812 5813 5812 5809 5811 5808 5806 5803 5801 5797 5793 5790 5788 5782 5777 5773 5771 5769 5767 5764 5763 5763 5761 5761
5809 5814 5816 5820 5823 5827 5829 5828 5828 5831 5837 5836 5832 5832 5830 5829 5824 5822 5825 5825 5825 5824 5822 5822 5814 5807 5809 5806 5802 5801 5801 5800 5799 5796 5793 5792 5785 5781 5777 5773 5770 5766 5762 5759 5757 5756 5755 5755 5754
5805 5804 5807 5810 5812 5816 5818 5818 5821 5823 5824 5823 5825 5823 5824 5822 5818 5814 5817 5820 5819 5815 5816 5814 5809 5803 5804 5802 5797 5793 5792 5791 5791 5788 5786 5783 5780 5774 5770 5766 5763 5760 5757 5754 5751 5749 5748 5748 5747
5790 5791 5794 5797 5803 5803 5810 5803 5808 5814 5815 5813 5813 5813 5813 5812 5810 5808 5812 5813 5809 5806 5808 5807 5802 5799 5799 5797 5792 5788 5787 5786 5784 5781 5778 5778 5775 5768 5764 5759 5755 5753 5751 5748 5745 5743 5741 5741 5741
5775 5779 5777 5790 5794 5800 5803 5789 5803 5808 5806 5802 5803 5803 5804 5804 5803 5801 5803 5804 5799 5801 5802 5799 5794 5793 5793 5791 5787 5783 5783 5782 5778 5777 5773 5771 5768 5763 5758 5753 5749 5744 5743 5741 5738 5736 5735 5734 5733
5764 5764 5773 5785 5793 5788 5788 5786 5798 5797 5795 5795 5794 5793 5795 5796 5797 5794 5792 5796 5793 5794 5795 5792 5788 5785 5788 5785 5782 5780 5777 5778 5773 5770 5768 5765 5761 5756 5751 5746 5741 5737 5735 5732 5729 5727 5726 5726 5725
5759 5765 5772 5771 5781 5779 5778 5778 5787 5788 5787 5787 5787 5785 5788 5790 5788 5785 5786 5788 5784 5789 5787 5785 5783 5780 5781 5778 5775 5775 5773 5771 5769 5764 5761 5757 5754 5749 5744 5740 5734 5730 5727 5723 5720 5718 5718 5717 5717
5754 5758 5757 5762 5770 5772 5769 5772 5779 5779 5778 5779 5779 5779 5781 5779 5778 5775 5776 5779 5777 5781 5778 5777 5777 5775 5773 5772 5770 5768 5767 5765 5761 5758 5755 5751 5745 5740 5736 5731 5726 5721 5718 5714 5712 5709 5708 5708 5708
5742 5743 5744 5755 5762 5764 5764 5762 5767 5769 5770 5770 5771 5772 5769 5769 5769 5766 5769 5767 5772 5771 5770 5771 5771 5770 5767 5765 5764 5763 5760 5758 5755 5751 5747 5744 5739 5733 5728 5723 5717 5713 5709 5706 5703 5702 5701 5700 5700
5727 5735 5742 5747 5753 5755 5752 5751 5756 5763 5763 5763 5763 5762 5762 5762 5762 5762 5759 5756 5761 5761 5762 5765 5765 5764 5761 5760 5758 5756 5754 5751 5749 5744 5739 5738 5732 5725 5721 5715 5710 5705 5701 5699 5697 5696 5696 5696 5697
5717 5732 5733 5738 5741 5741 5748 5739 5749 5756 5755 5755 5752 5754 5754 5752 5749 5749 5749 5749 5753 5754 5757 5759 5759 5758 5757 5755 5753 5750 5748 5744 5742 5737 5733 5730 5727 5721 5715 5710 5705 5700 5698 5695 5693 5692 5692 5692 5693
5714 5720 5723 5727 5730 5731 5734 5737 5742 5748 5748 5746 5748 5749 5747 5744 5742 5742 5741 5742 5747 5750 5752 5753 5754 5753 5752 5750 5747 5744 5741 5739 5735 5731 5727 5722 5719 5714 5710 5705 5702 5699 5696 5692 5690 5689 5689 5689 5689
5699 5707 5710 5718 5721 5717 5731 5733 5732 5743 5743 5742 5742 5741 5738 5737 5736 5736 5734 5740 5742 5746 5748 5749 5749 5749 5747 5745 5742 5739 5736 5734 5731 5727 5722 5719 5714 5709 5705 5702 5700 5697 5694 5692 5690 5689 5689 5688 5687
5680 5691 5698 5705 5706 5709 5730 5724 5726 5738 5736 5735 5736 5733 5731 5729 5729 5727 5735 5736 5740 5742 5744 5745 5745 5744 5742 5740 5737 5735 5733 5729 5726 5723 5720 5715 5711 5707 5703 5701 5699 5697 5695 5693 5691 5690 5689 5688 5688
5664 5676 5685 5693 5703 5711 5720 5713 5727 5728 5728 5728 5729 5727 5725 5724 5724 5728 5731 5735 5737 5740 5741 5742 5741 5739 5737 5735 5733 5731 5728 5726 5723 5719 5716 5712 5709 5706 5703 5702 5700 5699 5697 5695 5693 5692 5691 5691 5691
5653 5661 5684 5689 5699 5704 5712 5714 5718 5722 5724 5723 5722 5722 5722 5722 5723 5726 5730 5733 5735 5736 5738 5738 5736 5734 5733 5732 5729 5727 5725 5723 5719 5717 5714 5711 5708 5705 5704 5703 5701 5700 5699 5697 5696 5694 5692 5693 5692
5637 5657 5665 5674 5685 5693 5705 5712 5717 5715 5718 5720 5720 5720 5719 5721 5723 5726 5729 5731 5732 5734 5735 5733 5732 5731 5730 5728 5726 5724 5721 5719 5716 5714 5711 5709 5707 5705 5704 5703 5702 5701 5701 5699 5698 5696 5695 5694 5694
5627 5638 5652 5672 5680 5689 5699 5709 5717 5712 5713 5716 5719 5718 5719 5719 5722 5724 5726 5728 5730 5731 5730 5729 5728 5728 5727 5725 5724 5721 5718 5717 5713 5712 5709 5707 5706 5705 5704 5703 5703 5703 5703 5701 5699 5698 5696 5695 5694
5621 5633 5643 5655 5670 5680 5695 5704 5705 5709 5712 5713 5714 5715 5717 5717 5720 5722 5724 5726 5728 5727 5727 5726 5726 5726 5724 5722 5721 5719 5717 5713 5711 5709 5708 5706 5705 5705 5704 5704 5704 5705 5705 5704 5702 5698 5698 5698 5696